Tracking 35331 objects as of 16-Sep-2026
HD Live streaming from Space Station
objects crossing your sky now

IRIDIUM 52


IRIDIUM 52 is no longer on orbit
IRIDIUM 52 is classified as:


NORAD ID: 25169
Int'l Code: 1998-010A
Launch date: February 18, 1998
Source: United States (US)
Launch site: AIR FORCE WESTERN TEST RANGE (AFWTR)
Decay date: 2018-11-05
Your satellite tracking list
Your tracking list is empty




NASA's NSSDC Master Catalog

Two Line Element Set (TLE):
1 25169U 98010A   18309.77169380  .30688811 -17469-5  40668-3 0  9998
2 25169  86.5281 137.3081 0051043 106.6669 254.0636 16.43225570 84626
Source of the keplerian elements: AFSPC